www.pogodaiklimat.ru

Погода и климат >> Архив погоды >> Россия >> Ростовская область >> Зимовники


ПОГОДА в Зимовниках

  • Прогноз погоды в Зимовниках
  • Монитор погоды в Зимовниках

АРХИВ ПОГОДЫ в Зимовниках

Время (UTC), дата Ветер
(напр.,м/с)
 
Видим.   Явления Облачность Т
(С)
Тd
(С)
f
(%)
Тe
(С)
Тes
(С)
Комфортность P
(гПа)
Po
(гПа)
Тmin
(С)
Tmax
(С)
R
(мм)
R24
(мм)
S
(см)
12 18.05 В 4
{11}
10 км 4/0
[Ci fib]
+25.7 +6.3 29 +25 +33 комфорт 1012.0 1003.7
15 18.05 СВ 3
{10}
10 км 6/0
[Ci fib]
+24.3 +5.6 30 +24 +25 комфорт 1010.9 1002.6 +25.9
18 18.05 СВ 3 10 км 6/0
[Ci fib]
+19.6 +4.4 37 +20 +20 1011.3 1002.9
21 18.05 СВ 3 10 км 8/0
[Ac trans]
+16.4 +3.8 43 +16 +16 1011.5 1002.9
00 19.05 СВ 3 10 км 4/0
[Ac trans]
+14.4 +3.2 47 +14 +14 1011.3 1002.7
03 19.05 В 4 10 км 9/0
[Ac As]
+15.8 +3.2 43 +15 +15 1011.8 1003.2 +13.9
06 19.05 В 4 10 км 3/0
[Ci fib]
+21.8 +2.5 28 +22 +28 комфорт 1012.0 1003.6
09 19.05 В 3 10 км 3/0
[Ci fib]
+25.7 +5.3 27 +25 +39 комфорт 1012.1 1003.8
12 19.05 СВ 2 10 км 6/0
[Ci fib]
+26.9 +4.0 23 +26 +36 жарко 1011.9 1003.7
15 19.05 СВ 2 10 км 9/0
[Ci fib]
+25.7 +5.3 27 +25 +27 комфорт 1012.3 1004.1 +27.1
18 19.05 СВ 1 10 км 4/0
[Ci fib]
+18.6 +7.7 49 +20 +20 1013.8 1005.3
21 19.05 СВ 1 10 км 3/0
[Ci fib]
+16.6 +4.8 46 +18 +18 1013.5 1005.0
00 20.05 СВ 2 10 км ясно +14.5 +5.3 54 +14 +14 1014.9 1006.3
03 20.05 СВ 2 10 км ясно +14.9 +5.7 54 +15 +16 1016.3 1007.7 +12.4
06 20.05 СВ 2 10 км ясно +21.9 +6.9 38 +23 +33 комфорт 1017.1 1008.7
09 20.05 СВ 3 10 км 6/1 1000 м
[Cu hum Ci fib]
+24.5 +4.8 28 +24 +36 комфорт 1017.9 1009.5
12 20.05 С 2 10 км 9/0
[Ci]
+25.8 +3.7 24 +25 +35 комфорт 1017.7 1009.4
15 20.05 СВ 3 10 км 4/0
[Ci fib]
+22.7 +3.7 29 +23 +24 комфорт 1018.0 1009.6 +25.8
18 20.05 СВ 2 10 км ясно +16.2 +2.9 41 +16 +16 1019.6 1011.0
21 20.05 В 3 10 км ясно +14.2 +0.1 38 +14 +14 1019.9 1011.3
00 21.05 Ю 1 10 км 1/0
[Ci fib]
+9.1 +1.3 58 +9 +9 1020.3 1011.5
03 21.05 штиль 0 10 км ясно +12.5 +1.2 46 +12 +14 1021.1 1012.4 +7.8
06 21.05 ЮВ 2 10 км ясно +21.5 +2.2 28 +21 +32 комфорт 1021.6 1013.1
09 21.05 ЮВ 4 10 км 8/0
[Ci fib]
+23.6 +1.2 23 +23 +33 комфорт 1021.1 1012.7
12 21.05 В 4 10 км 4/0
[Ci fib]
+24.8 +1.0 21 +24 +31 комфорт 1019.9 1011.5
15 21.05 В 3 10 км 8/0
[Ci fib]
+23.6 +0.6 22 +23 +24 комфорт 1019.0 1010.6 +25.1
18 21.05 В 2 10 км 8/0
[Ci fib]
+18.1 +0.7 31 +19 +19 1019.4 1010.8
21 21.05 В 3 10 км 9/0
[Ci fib]
+15.1 +1.9 41 +15 +15 1018.7 1010.1
00 22.05 ЮВ 3 10 км 8/0
[Ci fib]
+14.7 +6.8 59 +14 +14 1018.6 1010.0
03 22.05 ЮВ 2 10 км 9/0
[Ci fib]
+12.2 +6.2 67 +11 +12 1018.9 1010.2 +11.6
06 22.05 ЮВ 4-11
{12}
10 км 9/0
[Ac trans Ci sp]
+19.4 +2.7 33 +20 +24 1017.6 1009.1
09 22.05 ЮВ 4
{13}
10 км 9/0
[Ac trans]
+21.4 +2.6 29 +21 +27 комфорт 1015.5 1007.1
12 22.05 Ю 3
{11}
10 км 10/0
[Ac und]
+23.1 +5.5 32 +23 +26 комфорт 1014.3 1005.9
15 22.05 Ю 2 10 км 10/6 600 м
[Cb cap Ac und]
+19.3 +12.6 65 +21 +21 комфорт 1013.3 1004.9 +24.3
18 22.05 Ю 1 10 км слаб. ливневой дождь 10/8 600 м
[Cb cap Ac und]
+16.6 +13.9 84 +17 +17 1013.7 1005.2
21 22.05 Ю 1 10 км {ливн. осадки} 4/0
[Ac trans]
+15.2 +13.0 87 +16 +16 1012.6 1004.0
00 23.05 Ю 1 4000 м слаб. ливневой дождь 10/8 600 м
[Cb cap Ac und]
+14.4 +13.6 95 +15 +15 1012.3 1003.8
03 23.05 Ю 1 4000 м дымка {ливн. осадки} 9/4 600 м
[Cb cap Ac trans Ci sp]
+13.9 +12.4 91 +14 +15 1012.1 1003.5 +12.9 2
06 23.05 СЗ 1 10 км в посл. час гроза {ливн. осадки} 8/6 600 м
[Cb cap Ac trans]
+19.0 +14.7 76 +21 +25 комфорт 1010.9 1002.5
09 23.05 Ю 2
{14}
10 км в посл. час гроза {ливн. осадки} 8/3 600 м
[Cb cap Ac trans Ci ing]
+17.1 +14.9 87 +17 +25 1010.5 1002.0
12 23.05 З 2 10 км в посл. час гроза {ливн. осадки} 9/3 600 м
[Cb cap Ac trans Ci ing]
+16.3 +12.8 80 +16 +21 1011.2 1002.6
15 23.05 З 3 10 км 9/0
[As op Cc]
+18.7 +11.9 65 +20 +21 1009.5 1001.0 +19.6 12
18 23.05 ЮЗ 2 10 км 9/0
[Ac cuf]
+15.8 +11.6 76 +16 +16 1010.0 1001.5
21 23.05 ЮЗ 2 10 км 5/0
[Ac trans]
+15.1 +12.8 86 +15 +15 1010.2 1001.7
00 24.05 Ю 1 4000 м дымка 8/0
[Ac trans]
+14.0 +13.0 94 +14 +14 1009.6 1001.0
03 24.05 ЮЗ 2 4000 м дымка 8/0
[Cc]
+15.1 +13.8 92 +15 +16 1009.8 1001.3 +13.4
06 24.05 З 2 10 км 3/3 1000 м
[Cu hum]
+20.2 +15.0 72 +23 +31 комфорт 1010.1 1001.7
09 24.05 З 2 10 км 3/3 1000 м
[Cu hum]
+23.7 +14.1 55 +26 +39 жарко 1010.0 1001.7
12 24.05 СЗ 2 10 км 3/1 1000 м
[Cu hum Ci fib]
+25.5 +11.3 41 +27 +37 жарко 1009.9 1001.7
15 24.05 З 1 10 км 8/0
[Ci fib]
+24.8 +10.6 41 +26 +28 жарко 1009.6 1001.3 +26.2
18 24.05 В 1 10 км 6/0
[Ci fib]
+18.4 +14.1 76 +20 +20 1010.5 1002.1
21 24.05 ЮВ 1 10 км ясно +16.4 +12.0 75 +17 +17 1010.8 1002.3
00 25.05 ЮВ 1 10 км 8/0
[Ci fib]
+14.3 +11.6 84 +15 +15 1010.6 1002.0
03 25.05 В 1 10 км 8/0
[Ci fib]
+16.3 +12.9 80 +17 +18 1010.6 1002.1 +14.0
06 25.05 В 4 10 км 4/0
[Ci fib]
+23.8 +13.9 54 +26 +33 жарко 1009.9 1001.7

 

Местоположение метеостанции Зимовники (Ростовская область, Россия): широта 47.15 долгота 42.48 высота над уровнем моря 72 м.

В архиве по умолчанию представлена погода в Зимовниках за последнюю неделю. Архивные данные за месяц целиком и за предыдущие месяцы, начиная с января 2011 года, Вы можете получить, выбрав интересующий диапазон дат из раскрывающегося списка и нажав кнопку "Ввод!".


*Определитесь, кто Вы:
робот инопланетянин человек

Внимание! Время в таблицах - всемирное. Для получения местного времени необходимо прибавить поправку, которая равна 3 ч.

Смотрите также архив погоды в соседних городах и на ближайших метеорологических станциях:

Погода в Цимлянске (Ростовская область, Россия) (60 км)
Погода в Котельниково (Волгоградская область, Россия) (73 км)
Погода в Гиганте (Ростовская область, Россия) (111 км)
Погода в Ремонтном (Ростовская область, Россия) (111 км)
Погода в Константиновске (Ростовская область, Россия) (114 км)
Погода в Городовиковске (Калмыкия, Россия) (126 км)
Погода в Семикаракорске (Ростовская область, Россия) (131 км)
Погода в Нижнем Чире (Волгоградская область, Россия) (140 км)
Погода в Морозовске (Ростовская область, Россия) (141 км)
Погода в Дивном (Ставропольский край, Россия) (152 км)

Пояснения к столбцам:

Ветер - указаны скорость ветра в м/с - средняя за 10 мин, порывы в срок и между сроками (в фигурных скобках) и направление, откуда дует ветер: С - северный, СВ - северо-восточный, В - восточный, ЮВ - юго-восточный, Ю - южный, ЮЗ - юго-западный, З - западный, СЗ - северо-западный.
Видимость - горизонтальная дальность видимости в метрах или километрах. При видимости от 1 до 10 км при отсутствии осадков обычно наблюдается дымка, при ухудшении видимости до 1 км и менее - туман. В сухую погоду видимость может ухудшаться дымом, пылью или мглою.
Явления - указаны атмосферные явления, наблюдавшиеся в срок или в последний час перед сроком; фигурными скобками обозначены явления, наблюдавшиеся между сроками (за 1-3 часа до срока); квадратными скобками обозначены град или гололедные отложения с указанием их диаметра в мм.
Облачность - указаны через наклонную черту общая и нижняя облачность в баллах и высота нижней границы облаков в метрах; квадратными скобками обозначены формы облаков: Ci - перистые, Cs - перисто-слоистые, Cc - перисто-кучевые, Ac - высококучевые, As - высокослоистые, Sc - слоисто-кучевые, Ns - слоисто-дождевые, Cu - кучевые, Cb - кучево-дождевые. Подробнее классификацию облаков см. в Атласе облаков (PDF).
T - Температура воздуха - температура, измеренная на высоте 2 м над землей.
Td - Температура точки росы - температура, при понижении до которой содержащийся в воздухе водяной пар достигнет насыщения.
f - Относительная влажность воздуха - влажноcть воздуха, измеренная на высоте 2 м над землей.
Te - Эффективная температура - температура, которую ощущает одетый по сезону человек в тени. Характеристика душности погоды. При расчете учитывается влияние влажности воздуха и скорости ветра на теплоощущения человека.
Tes - Эффективная температура на солнце - температура, которую ощущает человек, с поправкой на солнечный нагрев. Характеристика знойности погоды. Зависит от высоты солнца над горизонтом, облачности и скорости ветра. Ночью, в пасмурную погоду, а также при ветре 12 м/с и более поправка равна нулю.
P - Атмосферное давление - приведенное к уровню моря атмосферное давление.
Po - Атмосферное давление - измеренное на уровне метеостанции атмосферное давление.
Tmin - Минимальная температура - минимум температуры воздуха на высоте 2 м над землей.
Tmax - Максимальная температура - максимум температуры воздуха на высоте 2 м над землей.
R - Количество осадков - Количество выпавших осадков за период времени, мм. При наведении курсора мыши на число - период времени, за который выпало указанное количество осадков.
R24 - Количество осадков - Количество выпавших осадков за 24 часа, мм.
S - Снежный покров - Высота снежного покрова, см. При наведении курсора мыши на число - состояние снежного покрова и степень покрытия местности в баллах.